[[{"header":{"parameterUnit":"m.s-1","parameterCategory":1,"la1":30.2991,"la2":30.254,"lo1":-89.0895,"lo2":-89.0444,"dy":0.0017,"dx":0.0017,"nx":28,"ny":28,"refTime":"2024-08-16T03:00:00:Z","depth":0,"parameterNumber":2,"parameterNumberName":"U-component_of_WINDS"},"data":[0,0,0,0,0,0,0,0,0,0,0,0,0,0,0,0,0,0,0,0,0,0,0,0,0,0,0,0,0,0,0,0,0,0,0,0,0,0,0,0,0,0,0,0,0,0,0,0,0,0,0,0,0,0,0,0,0,0,0.3299,0.3298,0,0.3204,0.3203,0.3202,0.3149,0.3149,0.3149,0.3149,0.3047,0.3044,0.3042,0,0,0,0,0,0,0,0,0,0,0,0,0,0.3431,0.3429,0.3299,0.3298,0.3297,0.3204,0.3203,0.3202,0.3149,0.3149,0.3149,0.3149,0.3048,0.3044,0.3041,0,0,0,0,0,0,0,0,0,0,0,0,0,0.3359,0.3428,0.33,0.326,0.3255,0.3205,0.3203,0.3201,0.3149,0.3149,0.3149,0.3149,0.3049,0.3045,0.3041,0.3021,0,0,0.3029,0.3027,0,0,0,0,0,0,0,0,0.3363,0.3354,0.3267,0.3262,0.3257,0.3188,0.3212,0.3141,0.3149,0.3189,0.3149,0.3148,0.3094,0.3086,0.3069,0.3017,0.3012,0.3029,0.3026,0.3025,0.3024,0,0,0,0,0,0,0,0.3368,0.3358,0.3262,0.3266,0.326,0.3245,0.3235,0.3198,0.3144,0.3186,0.3182,0.3171,0.3091,0.3072,0.3066,0.3011,0.3029,0.3025,0.3023,0.3022,0.2936,0.2937,0,0,0,0,0,0,0.338,0.3362,0.3265,0.3259,0.3311,0.3243,0.3231,0.3211,0.3144,0.3134,0.3172,0.3169,0.3079,0.307,0.3062,0.3034,0.3025,0.3021,0.3019,0.2936,0.2936,0.2937,0,0,0,0,0,0,0.3383,0.3372,0.3268,0.3309,0.3295,0.3241,0.3218,0.3209,0.319,0.3133,0.3123,0.3163,0.3079,0.3067,0.3032,0.303,0.3019,0.3016,0.2936,0.2936,0.2936,0.2978,0,0,0,0,0,0,0.3387,0.3373,0.3366,0.331,0.3293,0.3241,0.3218,0.3207,0.3184,0.318,0.3122,0.3113,0.3078,0.3038,0.3028,0.3024,0.3013,0.2936,0.2936,0.2936,0.2977,0.2979,0.2982,0,0,0,0,0,0.3392,0.3381,0.3366,0.3355,0.3284,0.3241,0.3232,0.3193,0.3184,0.3176,0.3139,0.3114,0.3032,0.3035,0.3023,0.3018,0.2936,0.2936,0.2936,0.2975,0.2979,0.2982,0,0,0,0,0,0,0.3437,0.3373,0.3356,0.3326,0.329,0.3233,0.3221,0.3198,0.3162,0.316,0.3112,0.3099,0.3068,0.3039,0.3044,0.2995,0.2981,0.2979,0.3015,0.3018,0.302,0.3027,0.301,0,0,0,0,0,0.3444,0.3417,0.3361,0.3341,0.3323,0.3276,0.3256,0.3229,0.3189,0.3173,0.3133,0.3094,0.3059,0.3037,0.3001,0.2972,0.2958,0.2963,0.2966,0.2968,0.2967,0.2948,0.2949,0.2937,0.2937,0.2937,0,0,0.3457,0.3419,0.3404,0.3349,0.3317,0.3289,0.3263,0.3234,0.3211,0.3168,0.3132,0.3102,0.3054,0.3022,0.3006,0.2997,0.2967,0.2968,0.2971,0.2968,0.2948,0.2949,0.2951,0.2937,0.2937,0.2937,0,0,0.3467,0.3435,0.3414,0.3384,0.3337,0.3306,0.3301,0.3247,0.3226,0.3189,0.3156,0.3128,0.3069,0.3036,0.3012,0.3009,0.2984,0.2999,0.3013,0.2995,0.2996,0.2997,0.2995,0.2995,0.2998,0.2998,0.2998,0,0.3488,0.3445,0.3406,0.3379,0.3355,0.3316,0.3294,0.3265,0.3209,0.3193,0.3184,0.3109,0.3075,0.3034,0.3033,0.3015,0.3007,0.3005,0.3,0.3,0.3,0.2997,0.2997,0.3,0.3,0.2999,0.2999,0,0.3474,0.3445,0.3433,0.3381,0.3356,0.3332,0.3287,0.3266,0.3242,0.3211,0.3173,0.3131,0.3086,0.3074,0.3049,0.3029,0.3025,0.3009,0.2994,0.3004,0.3,0.2999,0.3003,0.3002,0.3001,0.3001,0,0,0.3508,0.3436,0.3432,0.3408,0.3354,0.333,0.3303,0.326,0.3243,0.3205,0.318,0.3131,0.3116,0.3088,0.306,0.3044,0.3044,0.303,0.3028,0.3033,0.3017,0.3029,0.3029,0.3027,0.3027,0.3027,0.3021,0,0.3509,0.3461,0.3425,0.3389,0.3361,0.3323,0.33,0.3263,0.3233,0.3203,0.3169,0.3135,0.3118,0.3101,0.3085,0.3048,0.304,0.3047,0.3002,0.3001,0.3015,0.3028,0.304,0.3037,0.302,0.3019,0.3019,0,0.3503,0.3469,0.3431,0.338,0.3367,0.3346,0.3304,0.3277,0.3234,0.3213,0.3183,0.3153,0.3122,0.3111,0.3065,0.3071,0.305,0.3029,0.3028,0.3022,0.301,0.302,0.3035,0.3034,0.3017,0.3017,0.3017,0,0.3531,0.3475,0.3445,0.3426,0.3365,0.3352,0.3326,0.3283,0.3259,0.3222,0.3206,0.3165,0.3142,0.3111,0.307,0.3066,0.3029,0.3014,0.3009,0.301,0.3002,0.3003,0.3012,0.299,0.299,0.2991,0.2991,0,0.3535,0.3514,0.3457,0.3438,0.3412,0.3371,0.3345,0.3316,0.3278,0.3252,0.3216,0.3192,0.3141,0.311,0.3078,0.3045,0.3035,0.3016,0.3008,0.3019,0.3021,0.3004,0.3002,0.299,0.299,0.299,0.299,0,0.3562,0.3523,0.3488,0.3434,0.342,0.3403,0.3356,0.3336,0.3304,0.3272,0.3261,0.3211,0.3173,0.313,0.3077,0.3056,0.3024,0.3012,0.3039,0.3034,0.3031,0.3031,0.3029,0.3026,0.3007,0.3007,0.3008,0,0.3567,0.3549,0.3494,0.3475,0.345,0.342,0.3396,0.3354,0.333,0.328,0.3266,0.3225,0.3191,0.3131,0.3088,0.3048,0.3034,0.3036,0.3027,0.3039,0.3033,0.3034,0.3031,0.3038,0.3038,0.3039,0.3039,0,0.3579,0.3561,0.3529,0.3491,0.3464,0.3431,0.3397,0.3383,0.3333,0.3308,0.327,0.3243,0.319,0.3149,0.3103,0.3074,0.3048,0.3042,0.3039,0.3049,0.3065,0.3056,0.3045,0.3042,0.3042,0.3042,0.3042,0.3041,0.3594,0.3576,0.3535,0.35,0.3471,0.3439,0.3418,0.3384,0.3352,0.3306,0.3283,0.3244,0.3201,0.3136,0.3108,0.3076,0.3068,0.3063,0.3061,0.306,0.3063,0.3071,0.3068,0.3067,0.3067,0.3067,0.3067,0,0.3603,0.3575,0.3544,0.3498,0.3471,0.3451,0.3411,0.3389,0.3356,0.3319,0.3286,0.3241,0.3202,0.3157,0.3114,0.3097,0.3084,0.3087,0.3087,0.3081,0.3074,0.3081,0.3098,0.3098,0.3098,0.3098,0.3098,0.3098,0.3605,0.3574,0.3552,0.3505,0.3476,0.344,0.3419,0.3389,0.3359,0.3311,0.3279,0.3251,0.321,0.3164,0.3126,0.3114,0.3099,0.3106,0.309,0.3084,0.3081,0.3079,0.3085,0.3103,0.3103,0.3099,0.3099,0.3099]},{"header":{"parameterUnit":"m.s-1","parameterCategory":1,"la1":30.2991,"la2":30.254,"lo1":-89.0895,"lo2":-89.0444,"dy":0.0017,"dx":0.0017,"nx":28,"ny":28,"refTime":"2024-08-16T03:00:00:Z","depth":0,"parameterNumber":3,"parameterNumberName":"V-component_of_WINDS"},"data":[0,0,0,0,0,0,0,0,0,0,0,0,0,0,0,0,0,0,0,0,0,0,0,0,0,0,0,0,0,0,0,0,0,0,0,0,0,0,0,0,0,0,0,0,0,0,0,0,0,0,0,0,0,0,0,0,0,0,0.6244,0.6246,0,0.6461,0.6464,0.6466,0.6571,0.6571,0.6571,0.6571,0.6789,0.6795,0.6801,0,0,0,0,0,0,0,0,0,0,0,0,0,0.5913,0.5919,0.6244,0.6246,0.6249,0.6461,0.6464,0.6467,0.6571,0.6571,0.6571,0.6571,0.6788,0.6794,0.6801,0,0,0,0,0,0,0,0,0,0,0,0,0,0.6086,0.592,0.6243,0.6327,0.6336,0.646,0.6464,0.6468,0.6571,0.6571,0.6571,0.6571,0.6785,0.6794,0.6802,0.6858,0,0,0.6829,0.6833,0,0,0,0,0,0,0,0,0.6076,0.6098,0.6312,0.6321,0.6332,0.6489,0.6428,0.6599,0.6571,0.6482,0.6571,0.6571,0.6689,0.6706,0.6747,0.6869,0.6878,0.683,0.6835,0.6839,0.6842,0,0,0,0,0,0,0,0.6064,0.6089,0.633,0.6315,0.6327,0.6352,0.6376,0.646,0.6583,0.649,0.6498,0.6522,0.6695,0.6738,0.6753,0.6881,0.683,0.6838,0.6843,0.6847,0.7058,0.7058,0,0,0,0,0,0,0.6039,0.6079,0.6323,0.6336,0.6202,0.6358,0.6385,0.6439,0.6583,0.6605,0.6522,0.6526,0.6723,0.6742,0.6761,0.6836,0.6839,0.6847,0.6852,0.7058,0.7058,0.7059,0,0,0,0,0,0,0.6032,0.606,0.6314,0.621,0.6244,0.6363,0.6423,0.6443,0.6487,0.6607,0.6629,0.6544,0.6724,0.6748,0.6833,0.6845,0.6851,0.6859,0.7057,0.7058,0.7058,0.6985,0,0,0,0,0,0,0.6022,0.6057,0.6081,0.621,0.6249,0.6384,0.6424,0.6447,0.6502,0.651,0.6634,0.6654,0.6726,0.682,0.6842,0.6857,0.6866,0.7057,0.7058,0.7058,0.6987,0.6983,0.698,0,0,0,0,0,0.601,0.6051,0.6081,0.611,0.6282,0.6385,0.6407,0.649,0.6502,0.6527,0.6604,0.665,0.6839,0.6827,0.6854,0.6871,0.7057,0.7057,0.7058,0.6989,0.6984,0.698,0,0,0,0,0,0,0.5919,0.6069,0.6105,0.6189,0.6274,0.6402,0.6436,0.6482,0.6564,0.6568,0.6665,0.6692,0.6768,0.6828,0.6812,0.6932,0.6952,0.6958,0.689,0.6887,0.6883,0.6867,0.6874,0,0,0,0,0,0.5909,0.5982,0.6108,0.617,0.6211,0.6315,0.6364,0.642,0.6511,0.6546,0.663,0.6715,0.6794,0.6843,0.6922,0.6996,0.7024,0.702,0.7016,0.7013,0.7017,0.7059,0.7059,0.7061,0.7061,0.7061,0,0,0.5889,0.598,0.602,0.6154,0.6227,0.6298,0.6345,0.6419,0.6473,0.6557,0.6643,0.6707,0.6808,0.6887,0.6926,0.6939,0.7022,0.7014,0.701,0.7017,0.706,0.706,0.7059,0.7062,0.7062,0.7061,0,0,0.5889,0.5965,0.6025,0.6096,0.6205,0.6274,0.6288,0.641,0.6456,0.6543,0.6608,0.6672,0.6805,0.6875,0.6927,0.6951,0.6996,0.6973,0.6954,0.6994,0.6994,0.6994,0.7002,0.7004,0.6977,0.6977,0.6977,0,0.585,0.5962,0.605,0.612,0.6177,0.6257,0.6318,0.6382,0.651,0.6546,0.6559,0.6728,0.6802,0.6898,0.6903,0.6943,0.6961,0.6961,0.6987,0.6988,0.699,0.6999,0.7002,0.6973,0.6974,0.6974,0.6974,0,0.5909,0.5985,0.602,0.6143,0.6203,0.6268,0.6363,0.6414,0.6463,0.653,0.6617,0.6708,0.6807,0.6833,0.6882,0.6935,0.694,0.6969,0.6991,0.6985,0.6995,0.6999,0.6968,0.697,0.6971,0.6972,0,0,0.586,0.603,0.6041,0.6097,0.6222,0.6282,0.6348,0.6446,0.6487,0.6571,0.6629,0.6739,0.6766,0.6825,0.6883,0.6918,0.693,0.6942,0.6946,0.6937,0.6993,0.6971,0.6974,0.696,0.6961,0.6961,0.6984,0,0.5878,0.6005,0.6084,0.6178,0.6249,0.6325,0.6383,0.6464,0.6528,0.6596,0.6665,0.6742,0.6771,0.6808,0.6845,0.692,0.6942,0.6919,0.7014,0.7016,0.6987,0.6979,0.6957,0.6974,0.6989,0.6989,0.699,0,0.5917,0.6001,0.6102,0.6217,0.625,0.6301,0.6396,0.646,0.6553,0.6596,0.6661,0.6719,0.6791,0.6806,0.6906,0.6888,0.6931,0.6973,0.6975,0.6988,0.7003,0.6992,0.6982,0.6984,0.6997,0.6996,0.6996,0,0.5872,0.6009,0.6088,0.6133,0.627,0.6304,0.6362,0.6455,0.6507,0.6589,0.6624,0.6712,0.6761,0.6827,0.6906,0.6909,0.6997,0.7019,0.7034,0.7032,0.705,0.7048,0.7047,0.7076,0.7076,0.7076,0.7076,0,0.5884,0.5943,0.6069,0.6117,0.6184,0.6273,0.6337,0.6401,0.6483,0.6543,0.6613,0.6667,0.6768,0.6835,0.6897,0.6969,0.699,0.7026,0.7042,0.7021,0.7016,0.7051,0.7052,0.7077,0.7076,0.7076,0.7076,0,0.5846,0.5933,0.6023,0.6144,0.6176,0.622,0.6323,0.6372,0.6438,0.6513,0.6536,0.6639,0.6721,0.6806,0.6916,0.6958,0.7028,0.705,0.6997,0.7006,0.7017,0.7015,0.7039,0.7047,0.7069,0.7068,0.7068,0,0.5849,0.5896,0.6022,0.6068,0.6125,0.6198,0.6252,0.6341,0.6394,0.6502,0.6537,0.6624,0.6699,0.6825,0.6909,0.6993,0.7018,0.702,0.7031,0.7007,0.7018,0.7014,0.7019,0.7017,0.7016,0.7016,0.7015,0,0.5845,0.5885,0.5961,0.6052,0.6115,0.619,0.6268,0.6301,0.6404,0.646,0.6545,0.6603,0.6715,0.68,0.6894,0.6952,0.7,0.7011,0.7019,0.6998,0.6966,0.6983,0.6988,0.701,0.7011,0.7011,0.7011,0.7012,0.5828,0.5873,0.5968,0.605,0.6118,0.6189,0.624,0.6312,0.6385,0.6485,0.6532,0.6616,0.6706,0.6837,0.6893,0.6959,0.6973,0.6985,0.6988,0.699,0.6984,0.6954,0.6977,0.6977,0.6977,0.6977,0.6978,0,0.5827,0.5892,0.5967,0.6074,0.6137,0.6178,0.6265,0.6316,0.639,0.647,0.6541,0.6638,0.672,0.6809,0.6896,0.6932,0.6956,0.6952,0.695,0.6963,0.6967,0.6952,0.6931,0.6931,0.6931,0.6931,0.6931,0.6931,0.5835,0.5913,0.5964,0.6075,0.6139,0.6224,0.627,0.6335,0.6399,0.6504,0.6573,0.6631,0.6714,0.6808,0.6884,0.6908,0.6937,0.6926,0.6956,0.6959,0.6962,0.6966,0.6952,0.6931,0.6931,0.6947,0.6947,0.6947]}]]